Temp
63 63 63 63 63 63 63 63 63 63 63 63 63 63 63 63 64 79 82 91 92 86 85 95 98 97 96 94 98 97 71 69 76 76 78 88 85 92 92 85 88 86 80 83 86
63 63 63 63 63 63 63 63 63 63 63 63 63 63 63 63 68 78 90 87 87 87 95 93 90 94 89 93 93 83 70 76 88 85 84 89 88 87 83 82 80 80 86 86 86
63 62 62 62 62 62 62 62 63 62 62 62 63 63 63 63 70 85 87 89 85 85 95 95 94 92 88 90 93 88 77 88 85 88 87 87 86 90 82 76 79 76 81 84 83
62 62 62 62 63 63 62 62 62 62 62 62 63 63 63 64 71 90 86 87 85 90 95 93 92 86 84 83 92 85 92 93 84 86 83 85 89 85 84 81 86 85 85 83 81
61 61 61 61 62 62 62 62 61 61 62 62 63 64 66 70 80 95 86 87 93 95 93 92 90 89 87 89 92 87 91 94 87 86 85 91 85 83 82 87 88 88 88 82 83
62 61 61 61 61 61 61 61 61 61 62 63 64 64 64 68 99 99 95 95 97 95 94 96 93 96 89 89 87 93 92 93 94 89 92 84 83 85 84 88 87 87 85 87 84
61 61 61 61 60 61 60 60 60 61 62 63 64 71 72 76 98 97 99 97 99 97 94 100 100 92 91 86 98 95 88 90 90 88 84 87 78 79 86 88 85 87 86 89 87
61 61 61 60 60 60 59 59 59 61 63 64 66 66 65 94 95 95 99 98 102 102 100 101 101 94 88 93 92 87 86 75 86 86 87 82 68 82 87 86 83 86 88 87 87
60 60 60 60 59 59 58 58 60 63 65 65 62 62 70 93 89 95 96 97 99 98 98 108 97 86 90 80 75 82 71 79 81 88 86 81 71 83 88 87 84 85 84 84 85
60 59 59 59 58 57 57 59 67 65 68 78 80 68 76 83 91 97 98 100 95 95 94 91 85 78 80 75 67 71 74 80 78 82 85 77 74 83 87 87 85 84 85 83 84
59 59 58 58 58 57 56 67 66 63 70 71 73 77 87 89 94 94 98 95 93 88 78 85 73 72 78 83 82 84 78 77 85 87 80 78 78 82 86 87 84 83 83 84 85
59 58 58 57 57 56 54 64 76 82 70 78 83 85 91 91 86 93 97 87 84 77 82 78 73 84 90 91 83 83 78 79 85 89 83 78 78 83 86 86 86 85 85 86 87
58 58 58 57 56 56 66 74 87 86 68 79 85 82 85 88 84 87 91 87 81 77 79 75 80 91 89 86 83 79 72 77 78 85 84 80 73 78 85 87 89 88 89 89 88
58 58 57 56 59 68 74 83 86 87 60 72 76 85 86 86 80 95 94 87 83 77 81 78 89 88 87 83 81 70 86 88 86 74 65 79 57 67 72 78 85 80 86 85 88
58 58 56 55 56 65 82 88 90 81 47 82 82 95 88 80 81 86 96 90 80 81 79 77 82 83 82 85 88 82 90 87 84 73 67 74 64 61 67 68 78 84 80 77 67
58 57 56 64 57 65 77 81 82 57 52 76 85 80 78 81 84 86 88 92 91 84 83 81 91 88 87 93 90 91 82 80 77 69 58 68 67 61 63 68 73 80 77 72 70
56 55 54 63 67 80 77 76 55 51 78 75 76 81 77 73 79 83 80 79 74 64 67 78 82 88 93 80 83 82 68 57 55 56 56 66 67 62 70 73 75 78 70 70 71
54 54 57 64 67 70 75 62 50 68 70 82 80 80 74 77 76 79 76 74 79 76 68 65 65 80 89 83 75 76 71 58 53 53 61 62 58 66 74 77 79 80 74 72 69
54 69 70 73 69 73 64 54 58 68 79 79 80 74 72 79 77 76 74 75 80 80 67 65 68 87 89 89 83 73 64 75 68 67 59 60 64 71 75 76 78 80 73 70 71
53 63 73 87 79 74 61 55 66 78 81 79 70 76 68 74 75 72 72 81 80 84 84 76 63 80 86 90 85 77 78 65 63 51 51 56 59 59 66 67 75 77 70 75 76
56 65 84 89 83 67 58 62 72 81 82 76 77 73 72 74 75 73 75 81 86 85 85 78 67 75 81 75 73 72 71 68 67 62 55 50 53 70 69 68 71 68 66 69 76
65 63 88 88 64 65 63 69 67 78 83 80 82 78 76 76 74 76 75 81 90 88 78 82 69 63 72 85 88 82 74 72 59 59 61 56 53 66 69 71 68 70 72 72 72
57 69 87 85 60 64 70 73 78 77 79 80 79 81 82 75 66 78 81 90 90 88 77 79 66 62 67 78 85 77 76 69 70 63 55 56 53 69 67 65 67 67 68 69 69
58 62 73 76 75 70 69 71 72 83 81 83 81 81 76 74 75 72 80 88 90 88 79 80 71 64 58 67 71 71 78 74 66 54 58 55 58 61 66 65 65 67 67 68 67
60 66 68 63 68 71 72 72 72 73 82 83 76 78 75 68 72 73 80 82 86 83 77 77 64 63 67 71 72 68 76 79 70 64 62 59 63 61 66 68 65 68 65 70 68
57 63 69 66 69 68 67 69 72 76 78 76 74 80 79 71 73 71 76 74 74 75 76 76 64 64 64 70 76 72 74 73 79 74 68 65 62 68 70 68 69 69 73 71 70
65 68 65 61 68 70 71 73 76 79 81 85 83 80 78 81 85 87 87 82 79 76 73 72 67 63 57 70 72 65 73 77 75 73 69 59 65 70 69 74 71 73 74 72 72
MSLP
1015.91 1015.58 1015.14 1014.72 1014.33 1013.84 1013.41 1013.00 1012.59 1012.30 1012.08 1011.66 1011.12 1010.61 1010.17 1009.56 1008.29 1007.08 1005.94 1003.88 1003.25 1002.35 1003.02 1002.15 1001.48 1000.92 1000.74 1000.73 1000.39 1000.40 1002.12 1003.20 1003.34 1003.15 1003.10 1002.80 1002.93 1003.19 1003.25 1004.67 1005.27 1006.11 1007.63 1008.96 1010.27
1016.08 1015.61 1015.16 1014.75 1014.21 1013.83 1013.44 1012.97 1012.63 1012.19 1011.88 1011.53 1011.18 1010.67 1010.24 1009.85 1008.77 1006.18 1003.40 1002.96 1002.73 1002.68 1002.55 1002.32 1001.46 1000.58 1000.55 999.67 999.40 1000.72 1002.04 1002.57 1002.32 1002.50 1002.41 1002.64 1002.93 1003.42 1004.23 1005.23 1006.37 1007.36 1008.34 1009.18 1010.17
1015.93 1015.75 1015.41 1014.87 1014.38 1013.86 1013.37 1013.00 1012.53 1012.26 1011.77 1011.34 1011.11 1010.60 1010.26 1009.87 1008.28 1003.92 1001.86 1002.27 1002.43 1002.86 1002.82 1002.45 1001.79 1001.29 1000.23 999.79 999.34 1000.08 1001.03 1001.66 1002.66 1002.39 1002.68 1002.78 1003.14 1003.57 1004.52 1005.72 1006.58 1007.52 1008.27 1009.09 1010.02
1016.01 1015.67 1015.33 1014.91 1014.31 1013.67 1013.17 1012.79 1012.36 1012.15 1011.78 1011.35 1011.02 1010.55 1009.70 1009.50 1006.42 1002.53 1002.12 1002.17 1002.40 1002.76 1002.54 1002.08 1001.25 1000.81 999.88 999.14 999.19 999.90 1000.38 1000.92 1002.33 1002.18 1002.95 1003.26 1003.43 1004.12 1004.76 1005.94 1006.74 1007.46 1007.96 1009.05 1009.54
1015.99 1015.65 1015.28 1014.83 1014.23 1013.65 1013.06 1012.60 1012.19 1011.87 1011.70 1011.30 1010.85 1010.44 1009.23 1008.20 1004.74 1002.08 1002.29 1002.17 1002.10 1002.23 1002.18 1001.82 1001.14 999.85 999.36 998.79 999.00 999.56 1000.11 1000.76 1001.89 1002.21 1002.95 1003.46 1004.43 1004.62 1005.31 1005.97 1006.92 1007.38 1007.80 1008.47 1008.97
1015.86 1015.44 1015.12 1014.79 1014.36 1013.79 1013.04 1012.34 1011.97 1011.63 1011.51 1011.28 1010.84 1010.38 1009.82 1006.78 1001.66 1001.39 1001.90 1002.15 1001.70 1001.77 1001.55 1000.74 1000.28 999.27 999.07 999.25 998.87 999.21 999.78 1000.43 1000.99 1002.37 1002.56 1003.31 1004.54 1005.03 1005.82 1006.10 1006.68 1007.11 1007.41 1007.91 1008.36
1015.78 1015.28 1014.92 1014.62 1014.19 1013.62 1013.01 1012.38 1011.78 1011.30 1011.11 1011.03 1010.85 1010.27 1008.61 1004.67 1001.51 1001.75 1001.24 1001.39 1001.29 1001.17 1000.93 1000.15 999.85 999.42 999.40 999.29 998.60 999.07 999.73 1000.25 1000.77 1001.65 1002.85 1003.30 1004.48 1005.03 1005.77 1006.20 1006.40 1006.68 1006.85 1007.14 1007.67
1015.75 1015.28 1014.81 1014.40 1013.80 1013.20 1012.71 1012.04 1011.37 1010.89 1010.73 1010.67 1010.60 1009.99 1007.14 1002.52 1001.82 1001.70 1001.24 1001.05 1000.73 1000.56 1000.50 999.99 999.56 999.54 999.66 999.27 998.98 999.36 999.74 1000.58 1001.21 1001.55 1002.32 1002.77 1004.08 1004.45 1004.97 1005.69 1006.11 1006.18 1006.57 1006.99 1007.56
1015.65 1015.12 1014.69 1014.28 1013.75 1013.04 1012.23 1011.40 1010.72 1010.34 1010.21 1010.33 1010.15 1009.23 1005.50 1001.77 1001.81 1001.24 1001.19 1001.04 1000.71 1000.51 1000.35 999.97 999.86 1000.13 1000.04 1000.12 999.91 999.64 1000.11 1000.36 1001.15 1000.75 1001.81 1002.64 1003.82 1004.16 1004.39 1004.96 1005.46 1005.83 1006.18 1006.90 1007.38
1015.69 1015.13 1014.53 1013.95 1013.52 1012.90 1011.89 1010.46 1009.87 1009.92 1009.75 1009.43 1008.89 1008.13 1004.25 1001.79 1001.08 1000.81 1000.85 1000.85 1000.87 1000.73 1000.74 1000.54 1000.54 1000.67 1000.61 1000.62 1000.40 999.97 1000.33 1000.16 1000.25 1001.14 1001.36 1002.29 1003.09 1003.47 1003.61 1004.23 1004.79 1005.35 1005.89 1006.44 1007.03
1015.58 1015.07 1014.45 1013.77 1013.18 1012.88 1011.98 1010.07 1010.05 1009.59 1008.89 1007.15 1005.92 1004.41 1002.11 1001.12 1000.49 1000.46 1000.60 1000.83 1000.80 1000.88 1001.10 1000.80 1001.25 1000.76 1000.28 999.98 999.44 999.66 999.76 999.51 999.65 1000.01 1000.92 1001.81 1002.44 1002.75 1003.01 1003.62 1004.21 1004.80 1005.37 1005.97 1006.37
1015.42 1014.82 1014.18 1013.44 1012.77 1012.57 1012.68 1010.60 1007.31 1006.64 1005.99 1005.12 1004.36 1003.50 1002.09 1001.27 1000.66 1000.15 1000.04 1000.78 1000.91 1001.15 1001.05 1001.15 1000.84 1000.13 999.85 999.50 999.36 999.26 999.33 999.18 999.14 999.28 999.88 1001.24 1001.91 1002.27 1002.45 1002.87 1003.23 1004.00 1004.59 1005.30 1006.11
1015.31 1014.67 1013.90 1012.83 1011.81 1011.62 1010.59 1008.51 1006.40 1006.00 1005.60 1003.22 1002.32 1002.11 1001.43 1000.61 999.96 999.78 999.87 1000.30 1000.76 1001.18 1001.08 1001.00 1000.22 999.62 999.34 998.97 998.71 998.42 998.48 998.62 998.88 999.08 999.67 1000.63 1002.01 1002.59 1002.37 1002.57 1002.81 1002.97 1003.73 1004.77 1005.60
1015.18 1014.54 1013.86 1012.62 1011.38 1010.53 1008.52 1006.06 1005.90 1005.62 1005.13 1001.67 1000.46 1000.23 1000.62 1000.35 1000.02 999.47 999.65 1000.22 1000.48 1000.69 1000.77 1000.53 999.77 999.24 998.99 998.59 998.37 998.17 998.02 997.99 998.77 999.60 1000.31 1000.47 1003.15 1003.82 1003.62 1003.05 1003.15 1003.61 1004.03 1005.30 1004.59
1014.98 1014.46 1013.94 1013.94 1012.71 1010.64 1007.13 1006.00 1005.13 1005.13 1004.14 998.44 998.72 998.49 999.41 1000.14 999.44 999.23 999.46 999.87 1000.18 1000.23 1000.37 1000.03 999.41 998.92 998.55 998.25 997.62 997.89 997.97 998.53 999.10 999.95 1000.72 1001.27 1003.08 1004.81 1004.86 1004.35 1003.77 1003.34 1006.09 1006.84 1011.12
1014.60 1014.19 1013.97 1012.38 1012.51 1009.21 1007.66 1006.59 1005.94 1005.55 1002.24 998.28 998.21 998.81 999.62 999.96 999.70 999.22 999.31 999.51 999.69 1000.02 999.86 999.56 998.74 998.42 997.91 997.32 997.27 997.55 998.21 998.91 999.59 1000.83 1002.00 1002.48 1003.36 1005.78 1005.58 1004.70 1004.35 1004.43 1006.99 1007.84 1008.41
1013.93 1013.48 1013.95 1013.08 1010.03 1007.64 1007.99 1007.17 1006.62 1004.41 1000.07 998.93 998.40 998.60 999.35 999.69 999.72 999.51 999.30 999.41 999.71 1000.14 1000.09 999.60 998.69 997.95 997.46 997.47 997.33 997.82 999.09 1000.31 1001.52 1002.52 1003.07 1003.05 1004.48 1005.58 1005.49 1005.05 1004.52 1006.31 1008.12 1008.26 1008.72
1013.24 1011.81 1010.63 1010.00 1009.01 1009.04 1008.08 1007.46 1006.15 1002.60 1000.41 998.70 998.53 998.38 999.19 999.30 999.37 999.14 999.12 999.41 999.65 1000.02 1000.11 999.91 998.94 997.84 997.24 997.20 997.53 998.21 999.46 1000.60 1001.92 1002.82 1003.06 1004.14 1004.90 1005.67 1005.28 1005.16 1005.53 1005.91 1008.46 1009.43 1009.13
1012.84 1010.27 1009.18 1007.59 1008.35 1008.93 1008.68 1007.34 1004.55 1001.82 999.71 999.06 998.59 998.05 998.64 998.80 998.81 999.13 998.92 998.96 999.12 999.40 999.99 999.48 998.68 997.50 996.95 996.71 997.29 998.04 998.97 999.80 1001.37 1002.09 1003.41 1005.25 1006.20 1006.09 1006.15 1006.20 1006.10 1005.67 1008.80 1010.22 1009.46
1013.29 1010.54 1007.12 1005.71 1007.10 1007.96 1007.96 1006.00 1003.52 1001.69 1000.17 999.37 998.65 997.22 997.80 998.26 998.38 998.23 998.19 997.94 998.32 998.52 998.64 998.78 999.16 997.58 996.87 996.63 996.89 997.59 998.62 999.91 1001.37 1002.99 1004.84 1006.52 1006.26 1006.39 1007.40 1007.77 1007.15 1007.54 1008.39 1009.10 1009.60
1012.72 1009.33 1004.22 1004.71 1006.40 1007.27 1006.54 1004.77 1003.25 1001.45 1000.48 999.68 998.25 997.94 997.50 997.49 997.70 997.61 997.50 997.05 997.23 997.67 998.07 998.35 999.27 998.10 997.30 996.85 997.35 997.99 998.79 999.99 1001.14 1002.80 1004.69 1007.29 1008.12 1007.11 1006.82 1008.68 1008.40 1010.20 1010.70 1010.35 1009.87
1011.77 1008.06 1004.38 1004.97 1006.11 1005.85 1005.13 1004.02 1002.72 1001.16 999.93 998.94 997.71 997.80 997.49 997.18 997.05 996.87 996.49 995.92 995.74 996.50 997.38 997.76 998.51 998.68 998.02 996.57 997.01 997.61 998.49 999.61 1001.63 1003.12 1004.40 1006.19 1009.05 1009.20 1008.54 1009.30 1010.59 1011.64 1011.93 1011.89 1009.57
1012.38 1007.89 1004.21 1004.46 1005.01 1004.79 1003.94 1003.00 1002.10 1000.75 999.46 998.59 997.68 997.60 997.27 997.16 997.24 995.82 995.35 994.87 994.82 995.63 996.47 997.29 998.38 999.03 998.54 997.62 997.13 997.48 998.16 999.19 1000.73 1002.72 1005.30 1006.81 1010.18 1010.25 1009.42 1009.58 1010.16 1010.44 1011.80 1013.23 1011.50
1012.87 1008.13 1005.01 1004.63 1004.35 1004.13 1003.37 1002.27 1001.19 999.99 999.21 998.40 997.68 997.36 997.42 997.12 996.56 996.10 994.87 994.44 994.32 994.86 995.65 996.51 997.95 999.15 999.48 999.30 999.13 998.22 998.15 999.53 1000.92 1003.38 1005.43 1007.12 1008.86 1010.24 1010.44 1010.19 1009.82 1010.50 1012.64 1013.88 1012.52
1012.60 1008.32 1006.18 1005.10 1004.47 1004.06 1003.46 1002.36 1001.04 999.65 998.87 998.15 997.73 997.50 997.58 997.52 996.86 995.87 994.64 994.45 994.44 994.80 995.69 996.77 998.19 999.28 999.86 999.88 999.43 999.34 998.91 999.35 1000.58 1002.09 1004.33 1006.17 1006.85 1007.56 1008.41 1009.51 1009.85 1010.85 1013.29 1013.94 1012.66
1012.20 1009.59 1007.60 1006.30 1004.99 1004.00 1002.96 1002.09 1001.17 999.81 998.87 998.12 997.83 997.68 997.53 997.32 996.81 996.02 995.15 994.52 994.77 995.23 996.16 996.90 998.42 999.26 1000.03 999.85 998.88 1000.29 999.07 999.47 1000.50 1001.73 1004.12 1005.28 1006.68 1006.72 1006.82 1008.57 1010.32 1011.52 1011.45 1011.48 1012.24
1012.61 1010.81 1009.33 1006.49 1004.91 1003.47 1002.52 1001.63 1000.78 999.85 998.44 997.72 997.33 997.34 997.04 996.25 995.74 995.10 994.76 994.32 994.59 995.43 996.21 997.41 998.62 999.61 1000.10 1000.07 1000.20 1000.28 999.25 999.18 1000.40 1001.35 1003.25 1004.97 1005.47 1006.33 1006.80 1007.56 1008.95 1009.69 1010.13 1010.67 1010.88
Wind_Speed
13 14 15 15 16 16 17 17 18 17 16 16 17 18 18 19 23 5 7 7 7 10 1 10 13 15 17 15 9 5 5 7 11 8 5 7 12 11 18 17 5 5 20 20 22
13 14 15 16 16 16 17 17 17 18 17 17 17 18 17 17 6 9 11 9 9 5 8 10 18 22 8 4 1 6 7 6 4 5 4 12 13 10 20 20 20 22 15 20 19
15 14 15 16 17 17 17 17 17 17 18 18 17 18 16 13 5 9 7 17 9 5 5 9 16 17 22 12 5 4 7 8 19 22 19 12 6 12 18 16 17 20 18 18 15
15 15 15 16 17 18 18 18 18 17 17 17 17 17 20 4 1 3 6 6 7 5 6 9 11 10 13 5 7 8 13 8 15 18 6 6 15 15 16 16 18 16 14 15 16
16 16 16 16 17 18 19 19 19 18 16 17 17 16 9 3 10 5 5 6 4 3 7 13 18 13 7 8 9 8 11 9 18 19 13 15 12 11 18 20 18 16 14 20 18
17 17 17 17 17 18 19 19 19 18 16 14 15 19 3 5 7 11 9 8 10 7 9 16 15 10 8 5 6 5 12 11 10 15 18 19 4 9 15 18 17 16 15 17 14
18 18 18 19 19 20 20 19 20 19 16 13 12 6 6 18 8 10 9 7 9 10 14 16 12 8 9 9 7 6 9 9 10 9 10 18 8 13 14 14 14 14 13 13 19
15 17 17 17 19 20 20 20 21 19 15 11 7 5 10 9 11 12 11 8 10 12 12 11 8 9 6 9 3 4 5 5 13 11 7 8 6 16 17 16 13 11 9 7 13
16 17 18 18 18 20 22 24 20 16 11 10 4 4 11 7 6 9 10 8 9 7 10 13 7 6 13 8 6 5 6 6 9 10 11 5 5 15 16 15 13 10 9 9 9
16 18 19 20 19 19 25 23 6 8 5 7 8 6 8 8 8 10 10 10 9 9 11 9 5 5 8 5 7 2 2 6 7 10 12 7 6 16 17 15 14 13 11 10 11
17 18 19 20 20 17 14 4 1 0 5 11 9 8 14 8 5 9 11 10 10 8 8 10 4 10 14 8 5 6 9 13 10 16 15 13 15 19 18 16 15 14 13 12 13
18 19 20 22 21 18 5 5 9 10 8 19 20 21 20 10 7 11 9 9 8 9 8 9 11 15 15 12 11 14 13 6 9 9 5 13 19 20 19 16 17 18 16 17 14
18 19 21 25 28 5 6 10 10 14 6 11 16 10 14 7 6 11 8 9 7 10 9 11 14 16 17 10 7 9 1 1 3 4 3 5 11 15 16 10 15 17 19 17 17
18 19 20 28 3 6 5 12 15 14 5 9 10 16 8 5 7 9 9 9 7 11 13 9 18 18 14 7 6 9 2 1 6 7 6 6 2 5 3 4 10 2 12 4 9
19 18 18 9 8 5 9 17 9 4 5 6 12 9 11 11 5 12 13 12 13 12 8 13 13 13 15 15 9 3 6 7 7 4 3 7 8 2 7 5 6 6 13 26 20
20 18 16 2 4 12 14 15 7 1 9 3 10 11 10 12 17 5 11 13 11 13 11 10 12 12 15 15 9 3 1 4 5 2 4 8 6 4 4 7 4 7 22 23 23
23 21 9 6 7 5 12 5 1 5 11 9 13 15 13 9 16 14 13 15 13 6 10 11 14 12 13 7 3 5 3 3 5 4 7 3 9 8 8 7 9 14 18 19 22
25 32 8 10 8 11 4 1 5 13 14 5 6 13 13 10 12 13 10 11 10 11 6 7 10 9 11 10 7 8 8 7 5 4 4 5 6 1 5 8 9 8 21 22 22
28 5 4 6 13 5 2 5 7 7 7 11 10 13 11 14 9 12 11 13 14 12 10 7 10 10 12 6 6 4 2 9 4 6 1 3 3 3 9 2 7 10 24 19 16
7 6 8 10 13 5 3 9 11 14 21 23 21 7 9 14 14 11 10 14 11 11 13 14 4 11 12 7 5 7 5 4 5 1 5 4 3 4 4 2 4 12 17 13 8
3 4 2 14 9 2 7 7 11 20 20 20 18 9 5 11 11 10 13 8 14 16 15 11 4 19 7 6 8 3 5 5 1 4 6 5 6 5 3 5 7 15 10 18 17
5 4 9 11 4 4 10 8 10 23 23 24 10 8 13 7 11 15 12 13 16 18 13 14 5 7 13 11 13 11 10 8 6 9 1 6 1 8 7 6 13 8 7 7 12
5 6 5 8 5 8 10 18 20 20 21 21 7 8 14 9 6 11 12 12 10 19 11 9 5 7 10 9 12 10 7 5 6 6 3 4 5 3 11 12 17 10 9 3 10
5 5 4 5 8 12 13 12 14 16 19 18 15 7 9 12 8 7 12 7 7 10 6 9 4 4 5 4 6 5 8 8 9 6 2 3 9 9 14 14 17 14 10 7 12
4 4 3 3 9 13 15 14 18 16 12 15 9 8 10 11 13 10 5 7 4 6 2 3 3 3 11 10 6 7 6 10 9 5 5 6 6 9 12 8 22 17 14 16 14
4 6 7 12 15 18 14 15 18 21 14 13 9 11 14 13 13 14 9 6 7 4 7 2 2 3 4 8 14 16 4 3 11 12 11 12 5 5 6 9 17 21 15 14 13
6 8 6 8 9 11 7 14 18 20 21 16 17 16 18 16 17 18 14 7 7 10 8 7 6 4 3 6 7 5 9 5 13 14 21 9 9 8 2 13 11 13 14 14 10
Wind_Direction
351 349 344 342 338 335 333 332 331 331 329 326 326 326 326 325 314 248 250 238 212 269 22 277 271 265 259 263 216 141 54 46 107 105 145 140 88 69 55 131 126 104 130 134 147
353 348 346 341 336 333 332 331 328 329 328 327 327 323 323 327 282 259 245 197 222 247 312 315 312 315 318 178 205 93 97 130 200 93 145 121 117 125 92 100 101 111 122 139 145
353 351 345 340 336 332 330 328 326 327 326 325 326 321 317 317 290 243 241 210 220 190 262 284 279 283 293 278 128 154 134 148 81 65 16 103 132 124 117 113 121 134 150 141 134
352 348 345 340 335 331 328 326 324 325 324 322 322 322 314 254 159 79 156 194 220 243 276 276 279 309 302 102 107 87 114 116 112 108 153 79 82 77 99 118 125 140 158 146 158
351 348 345 340 335 331 326 323 321 321 322 320 322 329 344 242 250 164 170 204 245 225 247 266 277 289 18 124 119 147 119 127 132 140 162 100 90 100 114 123 134 158 164 167 168
350 348 344 339 336 330 325 320 316 315 317 317 323 318 238 254 229 160 191 177 247 205 260 259 271 321 307 334 132 128 146 159 134 140 126 105 143 117 125 134 155 167 173 172 175
346 343 343 339 335 330 324 316 311 310 309 311 317 304 269 241 299 318 191 216 212 246 246 270 310 356 328 305 127 180 182 153 157 136 124 128 104 130 141 148 165 180 189 179 180
343 338 336 330 327 326 322 311 306 301 300 300 301 285 252 265 252 267 288 239 247 234 257 290 319 336 305 309 159 241 138 170 132 120 167 100 178 150 153 163 178 187 149 153 143
335 336 333 329 326 324 320 309 296 289 281 274 267 219 265 291 224 223 258 256 254 266 286 277 306 285 306 302 320 254 195 196 169 154 145 140 157 164 163 173 176 174 148 149 153
337 336 330 326 325 326 321 298 276 310 219 235 255 306 254 232 217 216 237 259 250 230 236 251 269 250 272 262 243 225 319 259 217 173 159 141 187 170 173 177 176 164 167 161 158
334 330 327 324 322 329 339 348 340 311 255 207 208 237 295 234 240 200 213 221 245 259 216 244 227 236 257 257 283 238 187 224 239 173 162 175 174 175 181 184 178 167 172 174 165
332 330 327 320 317 317 288 255 256 328 286 221 249 254 266 268 258 205 204 193 217 241 215 253 239 248 263 273 187 234 218 253 167 154 150 147 174 182 188 191 181 171 180 177 179
328 327 325 319 315 273 220 247 280 306 299 273 221 231 244 245 243 206 179 203 204 239 243 222 244 242 249 258 254 268 220 160 183 145 259 176 188 178 200 181 184 181 185 180 175
323 324 330 330 327 339 255 244 235 247 301 257 189 226 237 232 279 255 201 212 228 216 244 233 243 257 261 235 247 253 105 39 223 138 211 184 131 7 327 126 159 118 198 350 125
323 323 325 318 302 281 306 331 335 2 287 192 175 169 181 190 212 222 229 217 227 238 185 248 245 242 259 252 244 199 48 262 286 225 355 296 87 239 348 357 279 263 100 117 81
319 321 334 323 204 248 296 298 310 299 250 157 129 146 167 206 239 254 207 208 226 246 260 235 247 239 242 261 227 237 72 288 312 34 349 296 102 268 222 209 280 272 114 120 125
315 307 290 290 239 353 328 281 250 235 308 132 165 170 193 188 226 231 214 196 208 210 255 273 252 260 254 226 257 62 28 319 339 356 224 18 61 233 226 239 220 117 124 133 140
317 308 236 206 223 261 293 301 248 256 243 302 196 162 192 196 221 238 202 199 203 234 215 237 275 245 263 225 190 177 184 171 232 200 227 110 146 213 212 266 347 357 156 148 159
314 287 228 226 210 237 275 229 222 232 306 316 304 172 187 220 192 217 227 201 201 215 224 211 250 264 240 193 207 242 279 228 275 310 56 78 82 44 48 148 289 303 150 183 190
316 283 251 209 154 191 214 240 254 274 302 309 302 171 177 206 212 192 211 196 213 221 227 257 311 240 256 192 241 164 228 330 326 229 63 346 48 179 52 280 357 29 22 123 97
243 268 186 140 152 206 227 243 267 266 272 278 297 337 265 189 214 218 221 190 199 223 217 241 192 276 247 178 180 226 251 256 178 167 145 147 280 269 50 10 59 30 48 304 89
303 260 153 142 172 205 236 242 259 280 285 287 278 308 303 306 210 215 225 206 196 205 213 216 200 238 238 191 209 206 205 191 135 290 31 111 272 340 153 114 55 346 322 360 87
290 280 180 172 224 235 245 249 260 271 275 283 267 267 290 300 333 203 223 226 208 193 207 203 247 266 295 244 236 211 210 230 121 81 25 87 120 18 116 125 146 201 258 336 133
278 272 185 201 253 266 273 274 257 252 270 279 287 283 323 311 292 285 210 237 216 175 195 150 216 161 218 114 7 324 184 113 117 93 147 82 133 190 204 151 173 195 177 253 122
241 265 286 258 226 238 262 282 283 277 257 271 297 299 295 299 310 302 219 221 200 146 23 122 177 132 86 86 69 325 343 108 104 149 104 175 123 227 215 151 185 182 211 169 129
287 341 338 289 277 278 237 246 265 280 261 255 239 261 264 268 266 282 296 195 210 152 170 144 225 132 117 132 112 256 273 243 124 128 112 135 151 267 331 97 148 176 153 122 130
351 332 305 281 298 294 228 231 247 263 273 227 235 224 243 250 253 267 274 215 214 158 171 172 156 153 225 190 206 223 229 201 116 137 143 166 212 162 181 106 123 127 124 129 129